This is the latest recevied weather packets stored in our database for station/object KO6LQK. If no packets are shown the sender has not sent any weather packets the latest 10 day(s).
| Time | Temp. | Humidity | Pressure | Rain* | Wind** | Luminosity | Snow |
|---|---|---|---|---|---|---|---|
| 1788446630 | 17.78° C | 37% | 1021.1 hPa | 0 mm | - | 84 W/m² | - |
| 1788446324 | 17.78° C | 37% | 1021 hPa | 0 mm | - | 77 W/m² | - |
| 1788446021 | 17.22° C | 37% | 1021.1 hPa | 0 mm | - | 72 W/m² | - |
| 1788445722 | 17.22° C | 37% | 1021.1 hPa | 0 mm | - | 66 W/m² | - |
| 1788445418 | 17.22° C | 37% | 1021 hPa | 0 mm | - | 61 W/m² | - |
| 1788445114 | 17.22° C | 38% | 1021 hPa | 0 mm | - | 54 W/m² | - |
| 1788444809 | 16.67° C | 38% | 1021.1 hPa | 0 mm | - | 49 W/m² | - |
| 1788444504 | 16.67° C | 39% | 1020.9 hPa | 0 mm | - | 42 W/m² | - |
| 1788444199 | 16.11° C | 40% | 1020.9 hPa | 0 mm | - | 38 W/m² | - |
| 1788443895 | 16.11° C | 42% | 1020.7 hPa | 0 mm | - | 32 W/m² | - |
| 1788443590 | 15.56° C | 42% | 1020.9 hPa | 0 mm | - | 25 W/m² | - |
| 1788443289 | 15.56° C | 44% | 1020.8 hPa | 0 mm | - | 21 W/m² | - |
| 1788442985 | 15.56° C | 44% | 1020.8 hPa | 0 mm | - | 15 W/m² | - |
| 1788442682 | 15° C | 44% | 1020.8 hPa | 0 mm | - | 12 W/m² | - |
| 1788442379 | 15° C | 44% | 1021 hPa | 0 mm | - | 7 W/m² | - |
| 1788442078 | 15° C | 43% | 1021 hPa | 0 mm | - | 5 W/m² | - |
| 1788441774 | 15.56° C | 43% | 1020.7 hPa | 0 mm | - | 2 W/m² | - |
| 1788441469 | 15.56° C | 43% | 1020.9 hPa | 0 mm | - | 1 W/m² | - |
| 1788441168 | 15.56° C | 43% | 1020.8 hPa | 0 mm | - | 0 W/m² | - |
| 1788440863 | 15.56° C | 43% | 1020.8 hPa | 0 mm | - | 0 W/m² | - |
| 1788440558 | 15.56° C | 43% | 1020.8 hPa | 0 mm | - | 0 W/m² | - |
| 1788440256 | 16.11° C | 42% | 1020.8 hPa | 0 mm | - | 0 W/m² | - |
| 1788439951 | 16.11° C | 42% | 1020.8 hPa | 0 mm | - | 0 W/m² | - |
| 1788439651 | 16.11° C | 42% | 1020.8 hPa | 0 mm | - | 0 W/m² | - |
| 1788439346 | 16.11° C | 43% | 1020.8 hPa | 0 mm | - | 0 W/m² | - |
* Rain latest hour (hover to see other rain measurements)
** Current wind speed in m/s (hover to see current wind gust speed)